Time,TemperatureF,DewpointF,PressureIn,WindDirection,WindDirectionDegrees,WindSpeedMPH,WindSpeedGustMPH,Humidity,HourlyPrecipIn,Conditions,Clouds,dailyrainin,SolarRadiationWatts/m^2,SoftwareType,DateUTC
2013-04-07 00:02:00,62.0,54.0,-100.00,SSE,148,4.0,10.0,75,0.00,,,0.00,0.000000,,2013-04-07 05:02:00,
2013-04-07 00:23:00,61.0,55.0,-100.00,SSE,156,4.0,9.0,82,0.00,,,0.00,0.000000,,2013-04-07 05:23:00,
2013-04-07 00:34:00,61.0,55.0,-100.00,SSE,156,4.0,9.0,82,0.00,,,0.00,0.000000,,2013-04-07 05:34:00,
2013-04-07 00:43:00,61.0,55.0,-100.00,SSE,156,4.0,9.0,82,0.00,,,0.00,0.000000,,2013-04-07 05:43:00,
2013-04-07 00:52:00,61.0,55.0,-100.00,SSE,156,4.0,9.0,82,0.00,,,0.00,0.000000,,2013-04-07 05:52:00,
2013-04-07 01:02:00,61.0,55.0,-100.00,SSE,156,4.0,9.0,82,0.00,,,0.00,0.000000,,2013-04-07 06:02:00,
2013-04-07 01:32:00,60.0,56.0,-100.00,SSE,152,4.0,8.0,87,0.00,,,0.00,0.000000,,2013-04-07 06:32:00,
2013-04-07 01:43:00,60.0,56.0,-100.00,SSE,152,4.0,8.0,87,0.00,,,0.00,0.000000,,2013-04-07 06:43:00,
2013-04-07 01:52:00,60.0,56.0,-100.00,SSE,152,4.0,8.0,87,0.00,,,0.00,0.000000,,2013-04-07 06:52:00,
2013-04-07 02:02:00,60.0,56.0,-100.00,SSE,152,4.0,8.0,87,0.00,,,0.00,0.000000,,2013-04-07 07:02:00,
2013-04-07 02:33:00,59.0,56.0,-100.00,SE,142,5.0,8.0,91,0.00,,,0.00,0.000000,,2013-04-07 07:33:00,
2013-04-07 02:42:00,59.0,56.0,-100.00,SE,142,5.0,8.0,91,0.00,,,0.00,0.000000,,2013-04-07 07:42:00,
2013-04-07 02:52:00,59.0,56.0,-100.00,SE,142,5.0,8.0,91,0.00,,,0.00,0.000000,,2013-04-07 07:52:00,
2013-04-07 03:02:00,59.0,56.0,-100.00,SE,142,5.0,8.0,91,0.00,,,0.00,0.000000,,2013-04-07 08:02:00,
2013-04-07 03:33:00,58.0,56.0,-100.00,SSE,162,2.0,6.0,93,0.00,,,0.00,0.000000,,2013-04-07 08:33:00,
2013-04-07 03:43:00,58.0,56.0,-100.00,SSE,162,2.0,6.0,93,0.00,,,0.00,0.000000,,2013-04-07 08:43:00,
2013-04-07 03:53:00,58.0,56.0,-100.00,SSE,162,2.0,6.0,93,0.00,,,0.00,0.000000,,2013-04-07 08:53:00,
2013-04-07 04:02:00,58.0,56.0,-100.00,SSE,162,2.0,6.0,93,0.00,,,0.00,0.000000,,2013-04-07 09:02:00,
2013-04-07 04:03:00,57.0,55.0,-100.00,SE,137,2.0,4.0,94,0.00,,,0.00,0.000000,,2013-04-07 09:03:00,
2013-04-07 04:23:00,57.0,55.0,-100.00,SE,137,2.0,4.0,94,0.00,,,0.00,0.000000,,2013-04-07 09:23:00,
2013-04-07 04:34:00,57.0,55.0,-100.00,SE,137,2.0,4.0,94,0.00,,,0.00,0.000000,,2013-04-07 09:34:00,
2013-04-07 04:44:00,57.0,55.0,-100.00,SE,137,2.0,4.0,94,0.00,,,0.00,0.000000,,2013-04-07 09:44:00,
2013-04-07 04:54:00,57.0,55.0,-100.00,SE,137,2.0,4.0,94,0.00,,,0.00,0.000000,,2013-04-07 09:54:00,
2013-04-07 05:03:00,55.0,54.0,-100.00,SSE,155,0.0,3.0,96,0.00,,,0.00,0.000000,,2013-04-07 10:03:00,
2013-04-07 05:34:00,55.0,54.0,-100.00,SSE,155,0.0,3.0,96,0.00,,,0.00,0.000000,,2013-04-07 10:34:00,
2013-04-07 05:43:00,55.0,54.0,-100.00,SSE,155,0.0,3.0,96,0.00,,,0.00,0.000000,,2013-04-07 10:43:00,
2013-04-07 05:54:00,55.0,54.0,-100.00,SSE,155,0.0,3.0,96,0.00,,,0.00,0.000000,,2013-04-07 10:54:00,
2013-04-07 06:33:00,56.0,55.0,-100.00,SSE,168,2.0,5.0,97,0.00,,,0.00,0.000000,,2013-04-07 11:33:00,
2013-04-07 06:43:00,56.0,55.0,-100.00,SSE,168,2.0,5.0,97,0.00,,,0.00,0.000000,,2013-04-07 11:43:00,
2013-04-07 06:53:00,56.0,55.0,-100.00,SSE,168,2.0,5.0,97,0.00,,,0.00,0.000000,,2013-04-07 11:53:00,
2013-04-07 07:02:00,56.0,55.0,-100.00,SSE,168,2.0,5.0,97,0.00,,,0.00,0.000000,,2013-04-07 12:02:00,
2013-04-07 08:23:00,58.0,57.0,-100.00,SE,140,2.0,5.0,97,-99.99,,,0.00,49.000000,,2013-04-07 13:23:00,
2013-04-07 08:33:00,58.0,57.0,-100.00,SE,140,2.0,5.0,97,-99.99,,,0.00,49.000000,,2013-04-07 13:33:00,
2013-04-07 08:43:00,58.0,57.0,-100.00,SE,140,2.0,5.0,97,-99.99,,,0.00,49.000000,,2013-04-07 13:43:00,
2013-04-07 08:53:00,58.0,57.0,-100.00,SE,140,2.0,5.0,97,-99.99,,,0.00,49.000000,,2013-04-07 13:53:00,
2013-04-07 09:02:00,58.0,57.0,-100.00,SE,140,2.0,5.0,97,-99.99,,,0.00,49.000000,,2013-04-07 14:02:00,
2013-04-07 09:03:00,63.0,58.0,-100.00,SE,129,6.0,10.0,84,0.00,,,0.00,264.000000,,2013-04-07 14:03:00,
2013-04-07 09:33:00,63.0,58.0,-100.00,SE,129,6.0,10.0,84,0.00,,,0.00,264.000000,,2013-04-07 14:33:00,
2013-04-07 09:44:00,63.0,58.0,-100.00,SE,129,6.0,10.0,84,0.00,,,0.00,264.000000,,2013-04-07 14:44:00,
2013-04-07 09:54:00,63.0,58.0,-100.00,SE,129,6.0,10.0,84,0.00,,,0.00,264.000000,,2013-04-07 14:54:00,
2013-04-07 12:24:00,71.0,57.0,-100.00,South,191,4.0,16.0,62,-99.99,,,0.00,431.000000,,2013-04-07 17:24:00,
2013-04-07 12:33:00,71.0,57.0,-100.00,South,191,4.0,16.0,62,-99.99,,,0.00,431.000000,,2013-04-07 17:33:00,
2013-04-07 12:43:00,71.0,57.0,-100.00,South,191,4.0,16.0,62,-99.99,,,0.00,431.000000,,2013-04-07 17:43:00,
2013-04-07 12:54:00,71.0,57.0,-100.00,South,191,4.0,16.0,62,-99.99,,,0.00,431.000000,,2013-04-07 17:54:00,
2013-04-07 13:02:00,71.0,57.0,-100.00,South,191,4.0,16.0,62,-99.99,,,0.00,431.000000,,2013-04-07 18:02:00,
2013-04-07 13:33:00,72.0,58.0,-100.00,SSE,167,6.0,14.0,62,0.00,,,0.00,258.000000,,2013-04-07 18:33:00,
2013-04-07 13:44:00,72.0,58.0,-100.00,SSE,167,6.0,14.0,62,0.00,,,0.00,258.000000,,2013-04-07 18:44:00,
2013-04-07 13:53:00,72.0,58.0,-100.00,SSE,167,6.0,14.0,62,0.00,,,0.00,258.000000,,2013-04-07 18:53:00,
2013-04-07 14:02:00,72.0,58.0,-100.00,SSE,167,6.0,14.0,62,0.00,,,0.00,258.000000,,2013-04-07 19:02:00,
2013-04-07 14:23:00,74.0,58.0,-100.00,South,173,6.0,12.0,58,0.00,,,0.00,428.000000,,2013-04-07 19:23:00,
2013-04-07 14:33:00,74.0,58.0,-100.00,South,173,6.0,12.0,58,0.00,,,0.00,428.000000,,2013-04-07 19:33:00,
2013-04-07 14:43:00,74.0,58.0,-100.00,South,173,6.0,12.0,58,0.00,,,0.00,428.000000,,2013-04-07 19:43:00,
2013-04-07 14:55:00,74.0,58.0,-100.00,South,173,6.0,12.0,58,0.00,,,0.00,428.000000,,2013-04-07 19:55:00,
2013-04-07 15:02:00,74.0,58.0,-100.00,South,173,6.0,12.0,58,0.00,,,0.00,428.000000,,2013-04-07 20:02:00,
2013-04-07 15:03:00,77.0,60.0,-100.00,South,182,7.0,16.0,55,0.00,,,0.00,546.000000,,2013-04-07 20:03:00,
2013-04-07 15:33:00,77.0,60.0,-100.00,South,182,7.0,16.0,55,0.00,,,0.00,546.000000,,2013-04-07 20:33:00,
2013-04-07 15:44:00,77.0,60.0,-100.00,South,182,7.0,16.0,55,0.00,,,0.00,546.000000,,2013-04-07 20:44:00,
2013-04-07 15:54:00,77.0,60.0,-100.00,South,182,7.0,16.0,55,0.00,,,0.00,546.000000,,2013-04-07 20:54:00,
2013-04-07 16:03:00,78.0,58.0,-100.00,SSE,151,7.0,16.0,51,0.00,,,0.00,640.000000,,2013-04-07 21:03:00,
2013-04-07 16:23:00,78.0,58.0,-100.00,SSE,151,7.0,16.0,51,0.00,,,0.00,640.000000,,2013-04-07 21:23:00,
2013-04-07 16:35:00,78.0,58.0,-100.00,SSE,151,7.0,16.0,51,0.00,,,0.00,640.000000,,2013-04-07 21:35:00,
2013-04-07 16:45:00,78.0,58.0,-100.00,SSE,151,7.0,16.0,51,0.00,,,0.00,640.000000,,2013-04-07 21:45:00,
2013-04-07 16:55:00,78.0,58.0,-100.00,SSE,151,7.0,16.0,51,0.00,,,0.00,640.000000,,2013-04-07 21:55:00,
2013-04-07 17:03:00,78.0,57.0,-100.00,SSE,165,5.0,17.0,48,0.00,,,0.00,484.000000,,2013-04-07 22:03:00,
2013-04-07 17:24:00,78.0,57.0,-100.00,SSE,165,5.0,17.0,48,0.00,,,0.00,484.000000,,2013-04-07 22:24:00,
2013-04-07 17:34:00,78.0,57.0,-100.00,SSE,165,5.0,17.0,48,0.00,,,0.00,484.000000,,2013-04-07 22:34:00,
2013-04-07 17:44:00,78.0,57.0,-100.00,SSE,165,5.0,17.0,48,0.00,,,0.00,484.000000,,2013-04-07 22:44:00,
2013-04-07 17:53:00,78.0,57.0,-100.00,SSE,165,5.0,17.0,48,0.00,,,0.00,484.000000,,2013-04-07 22:53:00,
2013-04-07 18:33:00,77.0,57.0,-100.00,SSE,167,8.0,16.0,51,0.00,,,0.00,275.000000,,2013-04-07 23:33:00,
2013-04-07 18:43:00,77.0,57.0,-100.00,SSE,167,8.0,16.0,51,0.00,,,0.00,275.000000,,2013-04-07 23:43:00,
2013-04-07 18:53:00,77.0,57.0,-100.00,SSE,167,8.0,16.0,51,0.00,,,0.00,275.000000,,2013-04-07 23:53:00,
2013-04-07 19:02:00,77.0,57.0,-100.00,SSE,167,8.0,16.0,51,0.00,,,0.00,275.000000,,2013-04-08 00:02:00,
2013-04-07 19:23:00,74.0,57.0,-100.00,SSE,160,8.0,15.0,55,0.00,,,0.00,144.000000,,2013-04-08 00:23:00,
2013-04-07 19:33:00,74.0,57.0,-100.00,SSE,160,8.0,15.0,55,0.00,,,0.00,144.000000,,2013-04-08 00:33:00,
2013-04-07 19:43:00,74.0,57.0,-100.00,SSE,160,8.0,15.0,55,0.00,,,0.00,144.000000,,2013-04-08 00:43:00,
2013-04-07 19:53:00,74.0,57.0,-100.00,SSE,160,8.0,15.0,55,0.00,,,0.00,144.000000,,2013-04-08 00:53:00,
2013-04-07 20:02:00,74.0,57.0,-100.00,SSE,160,8.0,15.0,55,0.00,,,0.00,144.000000,,2013-04-08 01:02:00,
2013-04-07 20:23:00,72.0,58.0,-100.00,SSE,163,7.0,15.0,61,0.00,,,0.00,16.000000,,2013-04-08 01:23:00,
2013-04-07 20:34:00,72.0,58.0,-100.00,SSE,163,7.0,15.0,61,0.00,,,0.00,16.000000,,2013-04-08 01:34:00,
2013-04-07 20:44:00,72.0,58.0,-100.00,SSE,163,7.0,15.0,61,0.00,,,0.00,16.000000,,2013-04-08 01:44:00,
2013-04-07 20:55:00,72.0,58.0,-100.00,SSE,163,7.0,15.0,61,0.00,,,0.00,16.000000,,2013-04-08 01:55:00,
2013-04-07 21:02:00,72.0,58.0,-100.00,SSE,163,7.0,15.0,61,0.00,,,0.00,16.000000,,2013-04-08 02:02:00,
2013-04-07 21:03:00,69.0,56.0,-100.00,SSE,162,6.0,13.0,63,0.00,,,0.00,0.000000,,2013-04-08 02:03:00,
2013-04-07 21:33:00,69.0,56.0,-100.00,SSE,162,6.0,13.0,63,0.00,,,0.00,0.000000,,2013-04-08 02:33:00,
2013-04-07 21:48:00,69.0,56.0,-100.00,SSE,162,6.0,13.0,63,0.00,,,0.00,0.000000,,2013-04-08 02:48:00,
2013-04-07 21:54:00,69.0,56.0,-100.00,SSE,162,6.0,13.0,63,0.00,,,0.00,0.000000,,2013-04-08 02:54:00,
2013-04-07 22:03:00,69.0,59.0,-100.00,SSE,164,7.0,14.0,70,0.00,,,0.00,0.000000,,2013-04-08 03:03:00,
2013-04-07 22:37:00,69.0,59.0,-100.00,SSE,164,7.0,14.0,70,0.00,,,0.00,0.000000,,2013-04-08 03:37:00,
2013-04-07 22:48:00,69.0,59.0,-100.00,SSE,164,7.0,14.0,70,0.00,,,0.00,0.000000,,2013-04-08 03:48:00,
2013-04-07 23:23:00,68.0,59.0,-100.00,SSE,162,6.0,13.0,73,0.00,,,-99.99,0.000000,,2013-04-08 04:23:00,
2013-04-07 23:34:00,68.0,59.0,-100.00,SSE,162,6.0,13.0,73,0.00,,,-99.99,0.000000,,2013-04-08 04:34:00,
2013-04-07 23:44:00,68.0,59.0,-100.00,SSE,162,6.0,13.0,73,0.00,,,-99.99,0.000000,,2013-04-08 04:44:00,
2013-04-07 23:53:00,68.0,59.0,-100.00,SSE,162,6.0,13.0,73,0.00,,,-99.99,0.000000,,2013-04-08 04:53:00,